Precipitable_Water
0.46 0.38 0.32 0.33 0.34 0.34 0.32 0.29 0.29 0.33 0.35 0.34 0.34 0.38 0.44 0.50 0.59 0.67 0.81 0.95 0.98 1.06 1.18 1.27 1.31 1.42 1.39 1.47 1.56 1.69 1.61 1.65 1.62 1.60 1.61 1.59 1.50 1.52 1.56 1.61 1.69 1.74 1.72 1.71
0.36 0.32 0.39 0.38 0.33 0.32 0.31 0.28 0.30 0.34 0.36 0.32 0.32 0.36 0.50 0.55 0.63 0.67 0.72 0.81 0.96 1.12 1.25 1.30 1.27 1.27 1.40 1.43 1.51 1.69 1.72 1.72 1.71 1.68 1.65 1.65 1.60 1.60 1.57 1.65 1.76 1.79 1.74 1.73
0.30 0.31 0.36 0.34 0.30 0.29 0.31 0.28 0.31 0.32 0.33 0.35 0.33 0.35 0.48 0.64 0.72 0.78 0.89 0.99 1.08 1.16 1.24 1.21 1.27 1.30 1.33 1.37 1.58 1.59 1.72 1.79 1.78 1.74 1.79 1.80 1.75 1.66 1.55 1.59 1.70 1.81 1.85 1.83
0.30 0.34 0.31 0.29 0.30 0.32 0.28 0.36 0.34 0.33 0.30 0.26 0.34 0.27 0.45 0.57 0.69 0.79 0.93 1.00 1.08 1.17 1.25 1.24 1.24 1.28 1.32 1.44 1.53 1.77 1.84 1.85 1.87 1.85 1.78 1.70 1.67 1.51 1.60 1.64 1.66 1.72 1.82 1.87
0.29 0.30 0.30 0.30 0.30 0.34 0.31 0.36 0.33 0.34 0.33 0.29 0.29 0.29 0.41 0.59 0.59 0.74 0.92 1.00 1.10 1.18 1.08 1.11 1.21 1.25 1.41 1.60 1.55 1.59 1.69 1.74 1.91 1.89 1.84 1.75 1.66 1.61 1.62 1.66 1.68 1.76 1.84 1.92
0.31 0.36 0.36 0.34 0.34 0.33 0.34 0.32 0.35 0.39 0.37 0.28 0.37 0.37 0.41 0.51 0.55 0.69 0.85 0.96 1.06 1.09 1.10 1.14 1.25 1.29 1.31 1.46 1.55 1.55 1.56 1.57 1.63 1.67 1.71 1.67 1.57 1.56 1.53 1.53 1.54 1.61 1.75 1.77
0.32 0.34 0.38 0.37 0.33 0.35 0.33 0.31 0.25 0.27 0.31 0.32 0.48 0.42 0.47 0.57 0.67 0.72 0.80 0.89 0.94 1.03 1.09 1.15 1.14 1.20 1.17 1.20 1.29 1.36 1.35 1.30 1.42 1.49 1.58 1.63 1.60 1.61 1.58 1.58 1.57 1.55 1.54 1.57
0.25 0.26 0.34 0.38 0.34 0.33 0.34 0.34 0.24 0.19 0.25 0.32 0.46 0.40 0.48 0.64 0.77 0.85 0.88 0.92 1.00 1.04 1.10 1.10 1.09 1.08 1.09 1.12 1.14 1.09 1.04 1.22 1.24 1.30 1.34 1.39 1.48 1.61 1.69 1.73 1.75 1.67 1.60 1.56
0.29 0.30 0.35 0.37 0.39 0.40 0.37 0.31 0.34 0.26 0.31 0.29 0.40 0.53 0.63 0.74 0.77 0.80 0.87 0.96 1.02 1.08 1.08 1.04 1.09 1.10 1.12 1.17 1.17 1.14 1.04 0.94 1.10 1.23 1.26 1.27 1.34 1.34 1.30 1.41 1.55 1.55 1.65 1.68
0.35 0.31 0.39 0.40 0.42 0.43 0.39 0.38 0.26 0.28 0.19 0.17 0.37 0.43 0.45 0.59 0.67 0.76 0.81 0.89 0.98 1.01 1.04 1.09 1.07 1.10 1.16 1.18 1.17 1.22 1.27 1.27 1.26 1.22 1.15 1.13 1.23 1.30 1.36 1.36 1.31 1.37 1.49 1.58
0.38 0.35 0.37 0.41 0.37 0.37 0.37 0.33 0.35 0.35 0.31 0.24 0.29 0.40 0.61 0.62 0.66 0.70 0.77 0.82 0.85 0.94 0.97 0.98 1.01 1.06 1.08 1.09 1.09 1.09 1.08 1.07 1.12 1.18 1.25 1.34 1.32 1.35 1.37 1.33 1.33 1.33 1.34 1.41
0.42 0.38 0.32 0.34 0.43 0.44 0.43 0.37 0.38 0.33 0.31 0.35 0.34 0.36 0.61 0.60 0.66 0.69 0.72 0.77 0.85 0.89 0.92 0.93 0.94 0.98 0.98 1.00 1.00 0.93 0.92 0.91 0.94 1.01 1.04 1.09 1.19 1.32 1.21 1.32 1.33 1.34 1.31 1.40
0.44 0.37 0.31 0.31 0.31 0.36 0.36 0.45 0.46 0.45 0.42 0.34 0.31 0.34 0.58 0.61 0.63 0.67 0.68 0.76 0.81 0.83 0.85 0.88 0.89 0.90 0.92 0.95 0.99 1.01 1.01 0.92 0.86 0.91 0.99 1.03 1.05 1.06 1.01 1.09 1.14 1.31 1.29 1.45
0.50 0.42 0.34 0.27 0.31 0.30 0.30 0.37 0.41 0.43 0.37 0.35 0.34 0.37 0.45 0.52 0.54 0.61 0.66 0.71 0.73 0.77 0.81 0.84 0.86 0.89 0.93 0.95 0.94 0.93 0.88 0.90 0.88 0.87 0.89 0.87 0.93 0.95 0.95 1.07 1.14 1.20 1.28 1.32
0.45 0.36 0.37 0.36 0.35 0.33 0.28 0.35 0.40 0.37 0.37 0.32 0.34 0.33 0.36 0.42 0.54 0.62 0.68 0.70 0.71 0.74 0.77 0.82 0.86 0.88 0.89 0.86 0.84 0.83 0.85 0.88 0.92 0.88 0.86 0.95 1.01 1.00 1.05 1.15 1.22 1.29 1.34 1.39
0.48 0.37 0.37 0.30 0.31 0.30 0.24 0.30 0.35 0.41 0.40 0.37 0.36 0.35 0.52 0.58 0.63 0.63 0.65 0.67 0.69 0.74 0.77 0.81 0.84 0.85 0.84 0.84 0.81 0.82 0.79 0.76 0.83 0.84 0.91 1.00 1.05 1.06 1.08 1.19 1.25 1.27 1.35 1.45
0.44 0.40 0.33 0.24 0.33 0.29 0.22 0.25 0.28 0.31 0.35 0.37 0.32 0.40 0.57 0.54 0.56 0.61 0.67 0.69 0.70 0.72 0.74 0.77 0.79 0.81 0.84 0.81 0.83 0.83 0.83 0.85 0.81 0.84 0.89 0.96 1.02 1.07 1.08 1.19 1.24 1.25 1.25 1.38
0.42 0.39 0.36 0.28 0.32 0.20 0.28 0.34 0.34 0.36 0.44 0.43 0.43 0.50 0.55 0.57 0.65 0.71 0.75 0.74 0.75 0.78 0.80 0.81 0.77 0.78 0.80 0.85 0.93 0.89 0.85 0.81 0.78 0.79 0.85 0.98 1.06 1.09 1.13 1.16 1.15 1.20 1.23 1.28
0.43 0.40 0.35 0.31 0.30 0.32 0.31 0.29 0.37 0.38 0.43 0.60 0.60 0.63 0.65 0.70 0.71 0.71 0.81 0.83 0.81 0.84 0.86 0.85 0.90 0.94 0.93 0.89 0.94 0.87 0.81 0.77 0.77 0.81 0.92 1.01 1.13 1.15 1.13 1.09 1.14 1.21 1.23 1.31
0.44 0.42 0.35 0.34 0.25 0.19 0.29 0.40 0.50 0.50 0.38 0.66 0.68 0.69 0.70 0.70 0.57 0.68 0.88 0.92 0.92 0.97 1.00 0.97 0.96 1.00 0.94 0.94 1.01 0.89 0.82 0.79 0.80 0.92 1.07 1.17 1.21 1.21 1.16 1.14 1.18 1.25 1.35 1.43
0.30 0.34 0.29 0.29 0.27 0.33 0.48 0.51 0.58 0.35 0.41 0.69 0.70 0.70 0.71 0.67 0.73 0.84 0.94 0.96 0.98 0.98 1.01 1.06 1.05 0.95 0.90 0.97 0.98 0.85 0.86 0.82 0.95 1.11 1.19 1.21 1.24 1.24 1.21 1.18 1.20 1.31 1.44 1.52
0.27 0.30 0.31 0.35 0.33 0.31 0.61 0.58 0.46 0.58 0.69 0.71 0.74 0.78 0.78 0.82 0.85 0.88 0.92 0.94 0.95 0.89 0.87 0.87 0.86 0.83 0.92 0.96 0.96 0.87 0.83 0.95 1.08 1.19 1.23 1.23 1.25 1.25 1.21 1.16 1.21 1.33 1.38 1.40
0.29 0.40 0.37 0.46 0.46 0.66 0.71 0.68 0.75 0.76 0.72 0.73 0.74 0.77 0.79 0.78 0.80 0.86 0.88 0.90 0.91 0.89 0.86 0.84 0.78 0.86 0.97 0.98 1.01 0.87 0.91 1.03 1.11 1.15 1.16 1.20 1.22 1.21 1.21 1.18 1.24 1.30 1.24 1.28
0.46 0.51 0.44 0.46 0.57 0.61 0.68 0.71 0.73 0.75 0.74 0.77 0.79 0.79 0.80 0.77 0.80 0.81 0.82 0.85 0.88 0.90 0.87 0.80 0.72 0.78 0.89 1.06 1.02 1.00 1.03 1.12 1.12 1.11 1.17 1.17 1.16 1.18 1.22 1.26 1.32 1.31 1.17 1.10
0.46 0.49 0.46 0.52 0.60 0.63 0.68 0.71 0.71 0.73 0.74 0.72 0.76 0.76 0.74 0.73 0.71 0.73 0.70 0.70 0.71 0.77 0.81 0.83 0.81 0.84 0.92 1.02 1.03 1.08 1.09 1.17 1.12 1.14 1.16 1.15 1.18 1.20 1.25 1.30 1.35 1.31 1.27 1.15
0.57 0.50 0.44 0.44 0.58 0.58 0.66 0.75 0.76 0.71 0.71 0.72 0.71 0.71 0.74 0.73 0.68 0.71 0.67 0.70 0.75 0.81 0.94 0.95 0.94 0.95 1.05 1.05 1.01 1.02 1.12 1.16 1.16 1.13 1.16 1.17 1.20 1.22 1.29 1.28 1.31 1.35 1.28 1.22
Wind_Speed
1 1 3 5 4 5 5 4 1 5 3 1 5 3 4 4 5 4 3 3 7 7 5 5 4 7 9 10 10 11 11 10 10 10 9 10 10 10 9 9 9 10 11 12
2 4 6 3 3 4 6 4 5 2 3 1 4 5 5 4 3 4 5 6 5 5 4 4 4 5 8 10 10 12 13 13 12 12 11 12 12 13 13 12 12 13 14 14
3 5 4 4 6 5 4 2 3 4 3 2 1 4 6 4 4 4 4 4 3 4 4 4 4 5 7 9 11 11 13 14 14 14 14 13 13 14 15 17 17 17 17 18
6 7 4 4 3 0 1 3 3 4 3 6 4 6 9 8 5 6 4 2 2 1 1 2 4 6 6 7 9 10 10 12 15 15 15 16 16 18 19 19 21 20 21 22
5 3 4 2 3 2 5 4 5 6 6 6 7 3 10 10 8 9 6 4 3 2 1 3 4 4 5 6 8 8 9 10 12 14 16 17 19 19 19 20 21 22 22 24
8 6 5 3 3 3 3 3 4 3 2 2 6 6 9 13 13 10 8 6 4 3 2 3 3 3 4 6 7 10 11 12 13 15 16 18 19 20 21 23 24 25 25 26
6 8 9 7 4 4 2 3 3 3 3 7 6 4 7 14 15 12 9 8 6 5 4 4 5 4 5 5 6 10 13 15 16 18 20 22 23 24 25 26 27 28 28 29
6 10 5 7 5 4 3 2 3 4 5 7 7 6 9 7 13 11 11 9 7 6 6 6 6 7 7 8 10 12 14 16 17 19 21 23 26 27 28 29 29 30 30 31
4 5 1 3 5 3 6 6 5 3 6 5 6 3 4 6 8 8 9 9 9 9 9 9 9 10 10 12 13 14 16 18 21 23 25 26 27 28 30 32 33 34 34 33
10 6 5 4 3 5 5 5 6 6 5 7 7 8 9 9 8 10 9 10 11 10 10 10 12 12 13 14 17 18 20 22 24 25 27 28 30 31 32 33 33 34 35 35
11 8 10 7 8 8 7 7 4 3 4 5 6 9 9 11 12 12 12 11 10 10 10 11 12 13 15 17 19 21 23 24 25 27 28 30 31 32 33 34 35 35 36 36
10 9 9 11 12 11 9 9 7 6 9 7 8 11 11 11 11 12 12 12 13 13 13 14 16 17 19 21 23 26 26 28 29 30 31 31 32 33 34 36 37 37 37 37
14 10 9 10 10 9 7 7 8 8 9 10 9 13 11 8 9 12 13 14 15 16 16 18 19 20 22 25 27 28 29 30 30 31 32 33 35 37 37 38 38 38 38 37
10 11 11 12 12 11 12 12 12 10 10 11 13 13 14 14 13 15 14 16 17 18 18 19 21 23 24 26 28 30 32 32 33 33 35 36 37 38 38 36 36 37 38 39
12 12 12 13 14 14 15 15 14 12 13 11 15 15 18 20 18 18 17 17 18 19 20 22 24 25 26 28 30 32 34 35 36 36 36 36 36 36 35 35 35 35 36 36
15 15 13 14 14 14 15 16 16 16 16 17 17 19 19 16 16 18 18 19 20 20 20 22 24 26 29 31 32 34 36 37 37 37 37 37 37 36 34 33 33 33 33 34
15 14 13 14 13 11 13 13 16 19 22 21 23 21 18 17 17 18 18 19 20 21 23 25 27 29 30 32 35 36 38 39 38 37 38 37 36 34 33 32 32 32 32 32
14 14 13 14 12 14 16 16 16 15 14 14 13 14 16 16 16 17 19 20 22 24 25 27 29 30 33 35 35 38 40 40 38 38 37 35 32 32 31 31 32 31 31 31
15 15 15 15 17 19 18 16 15 15 15 14 12 13 13 15 17 19 20 23 25 27 28 30 31 32 34 36 36 38 39 39 38 37 34 32 31 30 30 29 29 29 30 31
16 17 17 17 16 19 19 16 17 17 17 16 15 16 16 18 20 23 25 25 26 29 32 32 34 35 36 36 36 38 37 37 35 33 30 28 28 27 27 26 26 26 26 26
18 19 20 19 20 22 21 19 17 15 18 17 17 18 19 21 23 25 26 27 30 32 33 35 36 38 38 38 39 39 38 35 33 29 27 26 25 26 24 24 23 22 20 18
19 19 20 18 18 23 20 18 17 19 19 19 20 22 23 25 27 28 30 31 34 35 36 38 40 40 39 37 37 37 34 32 28 27 25 24 25 23 22 22 21 18 16 14
17 18 17 18 20 19 18 17 19 18 18 20 21 24 25 28 29 30 32 34 36 37 39 39 40 38 35 36 34 32 31 29 26 25 24 23 23 22 21 20 18 16 13 12
16 15 15 15 17 16 16 17 18 19 20 21 23 25 26 27 29 32 35 37 38 40 41 40 37 35 34 30 31 29 28 26 24 24 23 22 23 21 20 18 14 12 11 11
16 15 17 15 15 15 17 19 20 20 21 24 25 27 28 30 33 34 36 37 39 40 39 36 33 31 30 29 28 27 25 23 24 23 22 22 20 20 16 13 11 11 10 9
15 17 16 18 19 17 20 20 19 21 24 26 27 29 31 31 32 32 32 33 32 33 32 31 28 27 27 28 27 25 23 22 21 21 21 21 20 17 14 11 11 11 11 9
Wind_Direction
280 7 284 264 245 255 281 328 86 250 256 30 175 197 183 164 122 94 135 206 201 203 202 198 214 218 220 218 219 220 218 222 222 225 227 229 236 240 246 248 249 248 245 246
322 269 265 281 262 267 300 295 298 225 279 312 195 222 215 187 190 141 109 124 161 181 183 212 223 233 225 221 228 225 229 230 232 233 239 246 250 249 252 254 258 256 253 252
230 271 296 276 314 307 317 310 256 244 285 283 191 253 204 220 165 137 121 99 123 160 196 229 246 264 236 233 228 231 231 235 239 242 247 253 254 255 259 259 260 263 259 257
261 274 253 323 344 45 286 301 299 287 273 249 261 255 226 215 194 167 159 139 141 146 107 275 276 277 243 234 234 240 244 247 247 248 251 254 256 263 266 265 263 265 262 258
266 299 263 319 280 307 252 276 304 273 282 282 245 239 243 215 211 197 202 188 188 211 235 323 311 304 269 243 249 250 259 262 255 252 258 258 262 266 268 268 266 265 265 262
252 271 258 257 278 307 296 295 316 318 260 269 243 250 255 216 212 218 229 219 209 223 264 307 319 305 295 256 256 263 267 270 267 264 264 265 269 269 269 269 269 268 266 265
287 273 274 257 288 297 20 353 292 315 320 235 294 265 251 234 217 220 217 217 227 236 269 283 297 294 291 282 278 276 273 272 273 272 272 271 272 273 273 273 272 270 268 266
256 300 269 212 218 211 284 256 235 253 271 271 276 276 277 238 205 213 219 226 239 251 265 276 283 286 282 285 289 293 292 278 275 279 280 278 276 275 275 275 274 273 271 269
240 317 324 203 210 242 288 298 257 240 277 283 266 268 283 196 206 219 226 229 238 250 265 274 280 283 287 292 294 293 295 289 281 280 284 283 281 280 278 276 275 274 272 271
236 239 262 242 260 279 277 274 283 281 255 261 265 255 250 226 223 220 231 231 248 262 271 278 286 287 292 296 299 299 297 293 289 286 284 284 284 283 281 280 278 275 273 271
221 235 252 259 268 267 291 283 288 248 238 231 261 271 234 228 230 232 237 237 248 262 273 282 288 291 292 296 300 301 302 299 295 292 290 287 284 283 283 281 279 277 275 272
239 233 247 258 271 266 272 249 247 251 258 257 248 264 259 258 237 235 242 251 259 266 274 280 285 289 292 295 298 300 300 300 297 294 292 290 288 287 285 283 280 278 276 271
235 250 257 278 270 278 272 287 268 264 270 261 252 266 261 241 243 243 247 256 265 271 276 283 288 292 295 298 299 300 301 300 299 296 293 292 290 289 287 284 281 277 275 271
237 249 240 242 250 256 265 275 281 273 271 265 257 258 253 250 249 256 257 266 274 279 282 285 290 293 296 299 300 300 300 299 299 296 293 292 291 290 288 285 282 280 275 272
249 252 257 259 262 264 258 266 274 272 268 265 269 261 261 259 254 259 262 268 273 277 282 285 289 293 296 299 300 301 300 299 298 296 294 293 293 292 288 285 284 282 278 275
253 254 262 271 273 273 265 267 272 272 272 273 272 276 271 260 259 262 267 270 275 280 281 285 289 292 295 298 299 302 302 301 299 296 294 293 292 291 288 286 285 284 281 276
248 251 263 262 272 274 275 264 272 274 272 268 275 269 263 265 263 264 268 274 277 281 284 288 292 294 296 300 300 301 302 302 299 295 294 293 292 289 287 285 284 284 282 278
246 253 257 255 268 266 263 272 273 279 288 283 278 277 267 268 271 270 275 279 282 285 287 290 294 296 298 301 300 301 303 302 299 296 294 292 291 289 287 286 285 284 281 278
245 250 259 258 259 272 278 278 271 275 278 278 272 279 276 274 279 281 281 286 288 289 290 292 294 297 300 301 300 302 303 302 300 297 292 291 290 289 288 287 287 285 282 281
253 256 255 260 263 267 270 271 277 274 265 269 270 272 277 279 284 283 287 290 294 296 296 295 297 298 302 302 301 305 305 304 301 298 293 291 290 289 288 287 289 288 288 285
258 260 255 258 263 272 269 272 276 273 270 273 277 282 282 282 281 284 288 289 292 294 296 296 296 298 300 299 300 302 302 303 301 298 292 291 289 289 287 288 291 292 289 290
248 253 257 261 260 271 266 275 267 271 270 274 280 283 285 286 287 289 290 291 294 296 296 296 297 296 297 298 300 302 300 301 299 296 292 288 292 287 286 288 289 285 285 286
257 253 256 255 260 268 274 268 275 274 277 282 285 287 288 291 293 295 295 295 294 295 296 297 297 296 297 297 299 299 300 298 296 293 291 287 290 287 285 287 284 277 278 280
259 260 256 261 268 266 273 276 279 282 283 285 288 291 294 293 296 297 297 296 295 295 294 295 295 292 295 296 299 298 300 296 292 291 289 288 289 286 286 280 270 266 271 280
252 263 264 261 264 270 282 282 284 285 286 288 292 292 294 295 297 298 300 300 301 299 294 293 291 291 290 294 296 297 297 295 293 292 289 286 286 284 277 266 259 263 264 274
255 260 261 258 263 265 274 281 287 290 291 292 290 294 295 295 297 299 301 302 307 310 302 295 290 289 290 292 295 295 295 294 292 292 290 288 283 274 252 258 256 262 258 265